[[{"header":{"parameterUnit":"m.s-1","parameterCategory":1,"la1":30.2991,"la2":30.254,"lo1":-89.0895,"lo2":-89.0444,"dy":0.0017,"dx":0.0017,"nx":28,"ny":28,"refTime":"2025-12-01T09:00:00:Z","depth":0,"parameterNumber":2,"parameterNumberName":"U-component_of_WINDS"},"data":[0,0,0,0,0,0,0,0,0,0,0,0,0,0,0,0,0,0,0,0,0,0,0,0,0,0,0,0,0,0,0,0,0,0,0,0,0,0,0,0,0,0,0,0,0,0,0,0,0,0,0,0,0,0,0,0,0,0,-1.4663,-1.4663,0,-1.4716,-1.4717,-1.4718,-1.4672,-1.467,-1.4668,-1.4667,-1.4721,-1.4725,-1.4728,0,0,0,0,0,0,0,0,0,0,0,0,0,-1.4518,-1.4521,-1.4663,-1.4663,-1.4664,-1.4716,-1.4717,-1.4718,-1.4673,-1.467,-1.4668,-1.4666,-1.472,-1.4724,-1.4728,0,0,0,0,0,0,0,0,0,0,0,0,0,-1.4577,-1.4522,-1.4662,-1.4648,-1.4647,-1.4716,-1.4717,-1.4718,-1.4673,-1.467,-1.4667,-1.4665,-1.4719,-1.4724,-1.4729,-1.4815,0,0,-1.4743,-1.4745,0,0,0,0,0,0,0,0,-1.4574,-1.4583,-1.4649,-1.4649,-1.4648,-1.4685,-1.4686,-1.4751,-1.4674,-1.4663,-1.4667,-1.4663,-1.4712,-1.4717,-1.4733,-1.4818,-1.482,-1.4744,-1.4747,-1.4749,-1.475,0,0,0,0,0,0,0,-1.457,-1.458,-1.4684,-1.465,-1.4649,-1.4637,-1.4643,-1.4698,-1.4703,-1.4664,-1.4661,-1.4668,-1.4711,-1.4729,-1.4734,-1.4821,-1.4744,-1.4748,-1.4751,-1.4753,-1.4976,-1.4979,0,0,0,0,0,0,-1.4568,-1.4577,-1.4682,-1.4685,-1.4603,-1.4642,-1.4648,-1.4676,-1.4702,-1.4703,-1.467,-1.4665,-1.4722,-1.4728,-1.4736,-1.4837,-1.4749,-1.4753,-1.4756,-1.4973,-1.4977,-1.498,0,0,0,0,0,0,-1.4565,-1.4577,-1.468,-1.463,-1.4642,-1.4648,-1.4679,-1.4678,-1.4696,-1.4707,-1.4707,-1.4688,-1.472,-1.4729,-1.4795,-1.4838,-1.4755,-1.476,-1.4969,-1.4974,-1.4978,-1.5042,0,0,0,0,0,0,-1.4561,-1.4577,-1.461,-1.4631,-1.4645,-1.4739,-1.4682,-1.4681,-1.4705,-1.4699,-1.4723,-1.4724,-1.4718,-1.4788,-1.48,-1.4844,-1.4764,-1.4966,-1.4972,-1.4977,-1.5036,-1.5048,-1.5058,0,0,0,0,0,-1.4556,-1.4627,-1.4612,-1.4625,-1.4688,-1.4742,-1.475,-1.4741,-1.4708,-1.4742,-1.4748,-1.4724,-1.4832,-1.4795,-1.4808,-1.4854,-1.4963,-1.497,-1.4976,-1.5031,-1.5045,-1.5058,0,0,0,0,0,0,-1.4611,-1.4629,-1.4614,-1.4694,-1.4717,-1.4734,-1.4776,-1.4758,-1.4791,-1.4784,-1.4772,-1.4777,-1.4847,-1.4857,-1.4816,-1.4937,-1.4892,-1.4902,-1.4929,-1.4943,-1.4954,-1.495,-1.4768,0,0,0,0,0,-1.4633,-1.4676,-1.4689,-1.4758,-1.477,-1.4771,-1.4795,-1.4786,-1.4809,-1.4819,-1.483,-1.4853,-1.4891,-1.4918,-1.4954,-1.5036,-1.504,-1.5074,-1.5085,-1.5094,-1.5103,-1.5145,-1.5159,-1.5002,-1.5002,-1.5002,0,0,-1.4678,-1.4693,-1.4721,-1.477,-1.4786,-1.483,-1.478,-1.4829,-1.4861,-1.4826,-1.4889,-1.4898,-1.4922,-1.4996,-1.503,-1.5007,-1.5147,-1.5103,-1.511,-1.5114,-1.5153,-1.5168,-1.5181,-1.5007,-1.5006,-1.5005,0,0,-1.4782,-1.4799,-1.4857,-1.4874,-1.49,-1.4899,-1.4913,-1.4933,-1.4938,-1.5,-1.4974,-1.5011,-1.5079,-1.5097,-1.5115,-1.5223,-1.5201,-1.5235,-1.5294,-1.5335,-1.5347,-1.5358,-1.5395,-1.5408,-1.5243,-1.5244,-1.5244,0,-1.4835,-1.4901,-1.4889,-1.494,-1.4961,-1.493,-1.4988,-1.5005,-1.5042,-1.5057,-1.5031,-1.5113,-1.5128,-1.5204,-1.523,-1.5247,-1.5261,-1.5233,-1.5346,-1.5357,-1.5367,-1.5402,-1.5416,-1.5248,-1.5247,-1.5247,-1.5246,0,-1.4964,-1.5009,-1.5053,-1.5088,-1.5114,-1.5168,-1.5164,-1.5191,-1.5179,-1.5181,-1.5244,-1.526,-1.5298,-1.5315,-1.5305,-1.539,-1.5375,-1.5348,-1.5302,-1.5386,-1.5418,-1.5432,-1.5253,-1.5252,-1.5251,-1.525,0,0,-1.5107,-1.5132,-1.5148,-1.5163,-1.5187,-1.5222,-1.5273,-1.531,-1.5333,-1.5358,-1.54,-1.5457,-1.5431,-1.5451,-1.5442,-1.5478,-1.556,-1.5446,-1.5446,-1.5466,-1.5652,-1.5672,-1.5688,-1.5545,-1.5548,-1.555,-1.565,0,-1.5211,-1.5301,-1.5291,-1.5376,-1.5416,-1.5386,-1.5431,-1.545,-1.5452,-1.5486,-1.5489,-1.5529,-1.5493,-1.5504,-1.5539,-1.5543,-1.5597,-1.5536,-1.5583,-1.5585,-1.5578,-1.5705,-1.5727,-1.582,-1.5663,-1.5665,-1.5666,0,-1.5345,-1.5374,-1.5463,-1.5479,-1.5495,-1.5536,-1.5567,-1.56,-1.562,-1.5619,-1.5641,-1.5625,-1.5675,-1.5627,-1.5695,-1.5653,-1.5672,-1.5676,-1.568,-1.5684,-1.5631,-1.5712,-1.585,-1.5864,-1.5687,-1.5685,-1.5684,0,-1.5439,-1.55,-1.556,-1.5574,-1.5594,-1.5622,-1.5632,-1.5649,-1.5671,-1.5698,-1.5711,-1.5744,-1.5762,-1.5787,-1.578,-1.5746,-1.5848,-1.5801,-1.5848,-1.5848,-1.5871,-1.587,-1.6014,-1.5884,-1.5884,-1.5884,-1.5884,0,-1.5556,-1.5612,-1.5602,-1.564,-1.57,-1.5687,-1.5746,-1.5752,-1.5767,-1.5804,-1.578,-1.5815,-1.5803,-1.5837,-1.5831,-1.5887,-1.5895,-1.5895,-1.5893,-1.5897,-1.5897,-1.5909,-1.5902,-1.5888,-1.5887,-1.5886,-1.5886,0,-1.5672,-1.5668,-1.5731,-1.5744,-1.5748,-1.5792,-1.5803,-1.5837,-1.5836,-1.5883,-1.5893,-1.5892,-1.5931,-1.5925,-1.5968,-1.5964,-1.6033,-1.6024,-1.6027,-1.6024,-1.6071,-1.6066,-1.6227,-1.6247,-1.6106,-1.6107,-1.6108,0,-1.5747,-1.5788,-1.5805,-1.5827,-1.5838,-1.5876,-1.5897,-1.5885,-1.5908,-1.5932,-1.5963,-1.5999,-1.6027,-1.6089,-1.6092,-1.6124,-1.6114,-1.6169,-1.6119,-1.6121,-1.6114,-1.6111,-1.6114,-1.6178,-1.618,-1.6181,-1.6182,0,-1.588,-1.5875,-1.5907,-1.5937,-1.5963,-1.5987,-1.6008,-1.6028,-1.6017,-1.6044,-1.6083,-1.6104,-1.6147,-1.6182,-1.6212,-1.622,-1.6199,-1.6198,-1.621,-1.6214,-1.6214,-1.6213,-1.6052,-1.6194,-1.6193,-1.6192,-1.6192,-1.6191,-1.5976,-1.6011,-1.6027,-1.6062,-1.6076,-1.6096,-1.6128,-1.6131,-1.6162,-1.6196,-1.6186,-1.6229,-1.6246,-1.6283,-1.6295,-1.6327,-1.6307,-1.6326,-1.633,-1.6335,-1.6339,-1.6209,-1.6333,-1.6332,-1.6332,-1.6332,-1.6332,0,-1.6107,-1.6115,-1.6147,-1.6177,-1.6204,-1.6181,-1.6203,-1.6227,-1.6265,-1.6282,-1.6309,-1.6352,-1.6385,-1.639,-1.6421,-1.6446,-1.6437,-1.6455,-1.6453,-1.6454,-1.6356,-1.6342,-1.6461,-1.6461,-1.6461,-1.6461,-1.6461,-1.6461,-1.6178,-1.6234,-1.6231,-1.6293,-1.63,-1.6342,-1.6356,-1.6373,-1.6386,-1.6435,-1.6462,-1.6465,-1.6476,-1.6507,-1.6536,-1.6536,-1.6549,-1.657,-1.6566,-1.6475,-1.6462,-1.6449,-1.6436,-1.6573,-1.6573,-1.6661,-1.6662,-1.6663]},{"header":{"parameterUnit":"m.s-1","parameterCategory":1,"la1":30.2991,"la2":30.254,"lo1":-89.0895,"lo2":-89.0444,"dy":0.0017,"dx":0.0017,"nx":28,"ny":28,"refTime":"2025-12-01T09:00:00:Z","depth":0,"parameterNumber":3,"parameterNumberName":"V-component_of_WINDS"},"data":[0,0,0,0,0,0,0,0,0,0,0,0,0,0,0,0,0,0,0,0,0,0,0,0,0,0,0,0,0,0,0,0,0,0,0,0,0,0,0,0,0,0,0,0,0,0,0,0,0,0,0,0,0,0,0,0,0,0,-4.5311,-4.5312,0,-4.5386,-4.5387,-4.5387,-4.5327,-4.5324,-4.5322,-4.5319,-4.5392,-4.5396,-4.54,0,0,0,0,0,0,0,0,0,0,0,0,0,-4.5109,-4.5113,-4.5311,-4.5312,-4.5313,-4.5386,-4.5387,-4.5388,-4.5327,-4.5324,-4.5321,-4.5318,-4.5391,-4.5396,-4.5401,0,0,0,0,0,0,0,0,0,0,0,0,0,-4.5191,-4.5114,-4.5311,-4.5291,-4.529,-4.5385,-4.5387,-4.5388,-4.5328,-4.5324,-4.532,-4.5317,-4.5389,-4.5395,-4.5402,-4.5518,0,0,-4.5421,-4.5424,0,0,0,0,0,0,0,0,-4.5187,-4.5199,-4.5293,-4.5293,-4.5292,-4.5343,-4.5342,-4.5431,-4.5329,-4.5314,-4.5319,-4.5315,-4.5379,-4.5386,-4.5408,-4.5522,-4.5525,-4.5422,-4.5426,-4.5429,-4.543,0,0,0,0,0,0,0,-4.5181,-4.5195,-4.534,-4.5295,-4.5294,-4.5277,-4.5284,-4.5359,-4.5367,-4.5315,-4.5311,-4.532,-4.5377,-4.5402,-4.5409,-4.5526,-4.5422,-4.5427,-4.5431,-4.5434,-4.5734,-4.5738,0,0,0,0,0,0,-4.5178,-4.5191,-4.5338,-4.5343,-4.5229,-4.5284,-4.5292,-4.5331,-4.5366,-4.5367,-4.5324,-4.5317,-4.5393,-4.5402,-4.5412,-4.5548,-4.5429,-4.5435,-4.5438,-4.573,-4.5735,-4.574,0,0,0,0,0,0,-4.5174,-4.5192,-4.5335,-4.5266,-4.5283,-4.5291,-4.5335,-4.5334,-4.5358,-4.5372,-4.5373,-4.5348,-4.539,-4.5402,-4.5491,-4.5549,-4.5438,-4.5443,-4.5725,-4.5732,-4.5737,-4.5823,0,0,0,0,0,0,-4.5168,-4.5191,-4.5237,-4.5267,-4.5287,-4.5416,-4.5339,-4.5338,-4.537,-4.5363,-4.5395,-4.5397,-4.5388,-4.5482,-4.5498,-4.5556,-4.5448,-4.572,-4.5728,-4.5735,-4.5815,-4.5831,-4.5845,0,0,0,0,0,-4.5161,-4.5258,-4.524,-4.5258,-4.5345,-4.5419,-4.543,-4.542,-4.5375,-4.542,-4.5429,-4.5396,-4.5541,-4.5492,-4.5509,-4.557,-4.5716,-4.5726,-4.5735,-4.5808,-4.5828,-4.5844,0,0,0,0,0,0,-4.5233,-4.5262,-4.5242,-4.5351,-4.5383,-4.5409,-4.5466,-4.5441,-4.5486,-4.5477,-4.546,-4.5468,-4.5561,-4.5575,-4.552,-4.5683,-4.5621,-4.5634,-4.5671,-4.569,-4.5705,-4.5699,-4.5454,0,0,0,0,0,-4.5262,-4.5322,-4.5343,-4.5437,-4.5455,-4.5458,-4.549,-4.5479,-4.5511,-4.5524,-4.5539,-4.557,-4.5622,-4.5657,-4.5706,-4.5816,-4.5821,-4.5867,-4.5882,-4.5894,-4.5905,-4.5961,-4.5981,-4.577,-4.577,-4.577,0,0,-4.5322,-4.5345,-4.5384,-4.5452,-4.5476,-4.5536,-4.5469,-4.5537,-4.558,-4.5533,-4.5618,-4.563,-4.5663,-4.5763,-4.5807,-4.5777,-4.5964,-4.5906,-4.5915,-4.592,-4.5972,-4.5992,-4.601,-4.5776,-4.5775,-4.5774,0,0,-4.5461,-4.5486,-4.5566,-4.559,-4.5627,-4.5628,-4.5647,-4.5676,-4.5682,-4.5767,-4.5732,-4.5783,-4.5874,-4.5898,-4.5923,-4.6068,-4.6038,-4.6084,-4.6163,-4.6217,-4.6234,-4.6248,-4.6298,-4.6316,-4.6095,-4.6096,-4.6096,0,-4.553,-4.5622,-4.5609,-4.5679,-4.5708,-4.5669,-4.5748,-4.5772,-4.5823,-4.5843,-4.5808,-4.592,-4.594,-4.6043,-4.6078,-4.61,-4.6119,-4.608,-4.6233,-4.6247,-4.6261,-4.6307,-4.6326,-4.6101,-4.61,-4.61,-4.6099,0,-4.5703,-4.5767,-4.5826,-4.5876,-4.5913,-4.5987,-4.5983,-4.6021,-4.6006,-4.601,-4.6094,-4.6117,-4.6168,-4.6192,-4.6178,-4.6292,-4.6272,-4.6236,-4.6173,-4.6286,-4.633,-4.6348,-4.6108,-4.6106,-4.6105,-4.6104,0,0,-4.5891,-4.5932,-4.5954,-4.5974,-4.6011,-4.6058,-4.6129,-4.618,-4.6211,-4.6247,-4.6303,-4.638,-4.6346,-4.6373,-4.6361,-4.641,-4.652,-4.6367,-4.6367,-4.6393,-4.6643,-4.6669,-4.669,-4.65,-4.6504,-4.6507,-4.6639,0,-4.603,-4.6154,-4.6144,-4.626,-4.6316,-4.6279,-4.6339,-4.6367,-4.6371,-4.6418,-4.6422,-4.6476,-4.6429,-4.6444,-4.6491,-4.6497,-4.6569,-4.6487,-4.655,-4.6553,-4.6542,-4.6713,-4.6741,-4.6866,-4.6657,-4.666,-4.6662,0,-4.621,-4.6251,-4.6373,-4.6398,-4.6421,-4.6476,-4.652,-4.6566,-4.6595,-4.6595,-4.6624,-4.6603,-4.6671,-4.6608,-4.67,-4.6644,-4.6669,-4.6675,-4.668,-4.6684,-4.6613,-4.672,-4.6906,-4.6924,-4.6689,-4.6687,-4.6685,0,-4.6331,-4.6417,-4.6501,-4.652,-4.6552,-4.6591,-4.6605,-4.6631,-4.6661,-4.6699,-4.6717,-4.6763,-4.6787,-4.6821,-4.6812,-4.6767,-4.6905,-4.6841,-4.6904,-4.6904,-4.6934,-4.6932,-4.7124,-4.6953,-4.6953,-4.6953,-4.6952,0,-4.6486,-4.6562,-4.6555,-4.6607,-4.6689,-4.6675,-4.6756,-4.6765,-4.6788,-4.6838,-4.6808,-4.6855,-4.6841,-4.6887,-4.688,-4.6955,-4.6967,-4.6967,-4.6964,-4.6969,-4.6968,-4.6984,-4.6974,-4.6958,-4.6957,-4.6956,-4.6955,0,-4.6636,-4.6635,-4.6723,-4.6745,-4.6752,-4.6812,-4.683,-4.6876,-4.6878,-4.6942,-4.6956,-4.6958,-4.701,-4.7004,-4.7063,-4.7058,-4.715,-4.7138,-4.7141,-4.7137,-4.72,-4.7193,-4.7407,-4.7433,-4.7247,-4.7249,-4.7251,0,-4.6735,-4.6792,-4.682,-4.6852,-4.6869,-4.6921,-4.6951,-4.6939,-4.6971,-4.7007,-4.7048,-4.7098,-4.7137,-4.7222,-4.7227,-4.7271,-4.7258,-4.733,-4.7264,-4.7266,-4.7256,-4.7252,-4.7256,-4.7343,-4.7345,-4.7346,-4.7348,0,-4.6909,-4.6905,-4.695,-4.6995,-4.7032,-4.7067,-4.7098,-4.7125,-4.7115,-4.7153,-4.7206,-4.7236,-4.7295,-4.7344,-4.7385,-4.7397,-4.737,-4.7368,-4.7385,-4.739,-4.7388,-4.7387,-4.7174,-4.7363,-4.7362,-4.7361,-4.736,-4.7359,-4.7034,-4.7082,-4.7108,-4.7159,-4.7181,-4.721,-4.7254,-4.7261,-4.7306,-4.7353,-4.7342,-4.7402,-4.7426,-4.7478,-4.7495,-4.7539,-4.7513,-4.7537,-4.7543,-4.7549,-4.7555,-4.7382,-4.7547,-4.7547,-4.7546,-4.7546,-4.7545,0,-4.7205,-4.7219,-4.7266,-4.731,-4.7349,-4.7321,-4.7353,-4.7387,-4.744,-4.7466,-4.7504,-4.7564,-4.761,-4.7619,-4.7662,-4.7696,-4.7684,-4.7708,-4.7704,-4.7707,-4.7578,-4.7558,-4.7716,-4.7716,-4.7716,-4.7716,-4.7716,-4.7716,-4.7298,-4.7376,-4.7375,-4.7462,-4.7475,-4.7534,-4.7554,-4.758,-4.76,-4.7668,-4.7706,-4.7712,-4.7729,-4.7773,-4.7814,-4.7815,-4.7831,-4.7859,-4.7855,-4.7734,-4.7716,-4.77,-4.7681,-4.7863,-4.7863,-4.798,-4.7981,-4.7982]}]]